New Cumberland, PA

3:14 AM EDT on August 29, 2016 (GMT -0400)
Capital City

Weather History for KCXY - May, 2013

Change the Weather History Date:

Monday, May 6, 2013

  Actual Average Record
Temperature  
Mean Temperature 54 °F -  
Max Temperature 66 °F 69 °F 91 °F (1949)
Min Temperature 42 °F 49 °F 36 °F (1891)
Degree Days  
Heating Degree Days 11    
Growing Degree Days 4 (Base 50)    
Moisture  
Dew Point 47 °F    
Average Humidity 77    
Maximum Humidity 92    
Minimum Humidity 64    
Precipitation  
Precipitation 0.00 in - - ()
Sea Level Pressure  
Sea Level Pressure 30.18 in    
Wind  
Wind Speed 4 mph (East)    
Max Wind Speed 12 mph    
Max Gust Speed -    
Visibility 10 miles    
Events      
Averages and records for this station are not official NWS values.
T = Trace of Precipitation, MM = Missing Value Source: NWS Daily Summary

Daily Weather History Graph

Daily Weather History Graph

Search for Another Location

Airport or City:

Trip Planner

Search our weather history database for the weather conditions in past years. The results will help you decide how hot, cold, wet, or windy it might be!

Date:

Astronomy

May. 06, 2013 Rise Set
Actual Time 6:00 AM EDT 8:07 PM EDT
Civil Twilight 5:30 AM EDT 8:37 PM EDT
Nautical Twilight 4:54 AM EDT 9:14 PM EDT
Astronomical Twilight 4:14 AM EDT 9:54 PM EDT
Moon 4:01 AM EDT (5/6) 5:05 PM EDT (5/6)
Length of Visible Light 15h 07m
Length of Day
14h 07m
Waning Crescent, 11% of the Moon is Illuminated
May 6
Waning Crescent
May 9
New
May 18
First Quarter
May 25
Full
May 31
Last Quarter

Hourly Weather History & Observations

Time (EDT) Temp. Windchill Dew Point Humidity Pressure Visibility Wind Dir Wind Speed Gust Speed Precip Events Conditions
12:56 AM 50.0 °F - 42.1 °F 74% 30.21 in 10.0 mi Calm Calm - N/A   Clear
1:56 AM 46.0 °F - 42.1 °F 86% 30.20 in 10.0 mi Calm Calm - N/A   Clear
2:56 AM 44.1 °F - 41.0 °F 89% 30.19 in 10.0 mi Calm Calm - N/A   Clear
3:56 AM 43.0 °F - 39.9 °F 89% 30.19 in 10.0 mi Calm Calm - N/A   Clear
4:56 AM 42.1 °F - 39.9 °F 92% 30.20 in 10.0 mi Calm Calm - N/A   Clear
5:56 AM 44.1 °F 40.8 °F 39.9 °F 85% 30.21 in 10.0 mi East 5.8 mph - N/A   Clear
6:56 AM 45.0 °F 41.2 °F 41.0 °F 86% 30.22 in 10.0 mi ENE 6.9 mph - N/A   Clear
7:48 AM 46.4 °F 42.4 °F 42.8 °F 87% 30.23 in 10.0 mi ESE 8.1 mph - N/A   Mostly Cloudy
7:56 AM 46.0 °F 41.9 °F 42.1 °F 86% 30.23 in 10.0 mi East 8.1 mph - N/A   Mostly Cloudy
8:45 AM 46.4 °F 43.5 °F 42.8 °F 87% 30.23 in 10.0 mi East 5.8 mph - N/A   Mostly Cloudy
8:56 AM 46.0 °F 43.1 °F 43.0 °F 89% 30.24 in 10.0 mi ESE 5.8 mph - N/A   Overcast
9:56 AM 48.9 °F - 44.1 °F 83% 30.24 in 10.0 mi East 5.8 mph - N/A   Overcast
10:18 AM 50.0 °F - 44.6 °F 82% 30.23 in 10.0 mi ENE 4.6 mph - N/A   Overcast
10:49 AM 51.8 °F - 44.6 °F 76% 30.22 in 10.0 mi Variable 3.5 mph - N/A   Overcast
10:56 AM 53.1 °F - 46.0 °F 77% 30.23 in 10.0 mi ENE 3.5 mph - N/A   Overcast
11:56 AM 55.9 °F - 46.9 °F 72% 30.21 in 10.0 mi ENE 5.8 mph - N/A   Overcast
12:56 PM 59.0 °F - 48.9 °F 69% 30.19 in 10.0 mi East 8.1 mph - N/A   Overcast
1:56 PM 62.1 °F - 51.1 °F 67% 30.17 in 10.0 mi ESE 6.9 mph - N/A   Overcast
2:56 PM 64.0 °F - 52.0 °F 65% 30.15 in 10.0 mi East 9.2 mph - N/A   Overcast
3:47 PM 66.2 °F - 53.6 °F 64% 30.12 in 10.0 mi ESE 8.1 mph - N/A   Mostly Cloudy
3:56 PM 66.0 °F - 54.0 °F 65% 30.12 in 10.0 mi SE 10.4 mph - N/A   Scattered Clouds
4:56 PM 64.9 °F - 53.1 °F 65% 30.11 in 10.0 mi ESE 9.2 mph - N/A   Overcast
5:56 PM 66.0 °F - 54.0 °F 65% 30.10 in 10.0 mi ESE 11.5 mph - N/A   Overcast
6:56 PM 64.9 °F - 54.0 °F 68% 30.11 in 10.0 mi ESE 8.1 mph - N/A   Overcast
7:56 PM 64.0 °F - 53.1 °F 67% 30.11 in 10.0 mi East 5.8 mph - N/A   Overcast
8:56 PM 63.0 °F - 53.1 °F 70% 30.12 in 10.0 mi East 5.8 mph - N/A   Overcast
9:56 PM 63.0 °F - 53.1 °F 70% 30.13 in 10.0 mi East 6.9 mph - N/A   Overcast
10:56 PM 61.0 °F - 53.1 °F 75% 30.13 in 10.0 mi East 5.8 mph - N/A   Mostly Cloudy